| time (UTC) | temp F | wind direction | speed knots | gust knots | rain 1hr in | rain 24hr in | rain mn in | humidity % | barometer mb |
| 20260503212028 | 67 | 236 | 1.7 | 6.1 | 0.00 | 0.00 | 0.00 | 51 | 1014.0 |
| 20260503211539 | 67 | 276 | 0.9 | 6.1 | 0.00 | 0.00 | 0.00 | 51 | 1014.0 |
| 20260503211029 | 67 | 207 | 2.6 | 6.1 | 0.00 | 0.00 | 0.00 | 50 | 1014.1 |
| 20260503210533 | 68 | 246 | 1.7 | 6.1 | 0.00 | 0.00 | 0.00 | 51 | 1014.0 |
| 20260503210039 | 67 | 234 | 0.9 | 5.2 | 0.00 | 0.00 | 0.00 | 52 | 1014.0 |
| 20260503205528 | 67 | 276 | 1.7 | 6.1 | 0.00 | 0.00 | 0.00 | 50 | 1014.1 |
| 20260503205028 | 68 | 103 | 2.6 | 6.1 | 0.00 | 0.00 | 0.00 | 48 | 1014.1 |
| 20260503204544 | 68 | 99 | 0.9 | 5.2 | 0.00 | 0.00 | 0.00 | 51 | 1014.2 |
| 20260503204031 | 67 | 141 | 0.9 | 6.1 | 0.00 | 0.00 | 0.00 | 51 | 1014.2 |
| 20260503203530 | 67 | 250 | 1.7 | 6.1 | 0.00 | 0.00 | 0.00 | 52 | 1014.2 |
| 20260503203043 | 66 | 351 | 1.7 | 4.3 | 0.00 | 0.00 | 0.00 | 51 | 1014.3 |
| 20260503202529 | 67 | 86 | 1.7 | 4.3 | 0.00 | 0.00 | 0.00 | 48 | 1014.3 |
| 20260503202027 | 67 | 239 | 0.0 | 6.1 | 0.00 | 0.00 | 0.00 | 50 | 1014.4 |
| 20260503201541 | 67 | 0 | 0.9 | 6.1 | 0.00 | 0.00 | 0.00 | 50 | 1014.3 |
| 20260503201030 | 67 | 226 | 1.7 | 5.2 | 0.00 | 0.00 | 0.00 | 50 | 1014.3 |
| 20260503200528 | 68 | 0 | 1.7 | 5.2 | 0.00 | 0.00 | 0.00 | 50 | 1014.2 |
| 20260503200041 | 68 | 131 | 0.9 | 5.2 | 0.00 | 0.00 | 0.00 | 50 | 1014.3 |
| 20260503195529 | 68 | 273 | 0.9 | 5.2 | 0.00 | 0.00 | 0.00 | 51 | 1014.4 |
| 20260503195032 | 67 | 323 | 1.7 | 6.1 | 0.00 | 0.00 | 0.00 | 51 | 1014.6 |
| 20260503194544 | 67 | 96 | 0.9 | 6.1 | 0.00 | 0.00 | 0.00 | 52 | 1014.7 |
| 20260503194028 | 67 | 133 | 2.6 | 6.1 | 0.00 | 0.00 | 0.00 | 50 | 1014.8 |
| 20260503193530 | 67 | 134 | 1.7 | 6.1 | 0.00 | 0.00 | 0.00 | 50 | 1014.8 |
| 20260503193047 | 67 | 231 | 0.0 | 6.1 | 0.00 | 0.00 | 0.00 | 51 | 1014.9 |
| 20260503192527 | 67 | 68 | 1.7 | 7.0 | 0.00 | 0.00 | 0.00 | 51 | 1014.9 |
| 20260503192027 | 66 | 41 | 0.9 | 7.0 | 0.00 | 0.00 | 0.00 | 53 | 1014.9 |
| 20260503191541 | 66 | 153 | 1.7 | 5.2 | 0.00 | 0.00 | 0.00 | 54 | 1014.9 |
| 20260503191031 | 65 | 132 | 1.7 | 4.3 | 0.00 | 0.00 | 0.00 | 53 | 1015.0 |
| 20260503190528 | 64 | 0 | 0.0 | 2.6 | 0.00 | 0.00 | 0.00 | 55 | 1015.1 |
| 20260503190045 | 64 | 233 | 0.9 | 2.6 | 0.00 | 0.00 | 0.00 | 56 | 1015.1 |
| 20260503185527 | 64 | 259 | 0.9 | 4.3 | 0.00 | 0.00 | 0.00 | 56 | 1015.1 |
| 20260503185027 | 65 | 0 | 1.7 | 5.2 | 0.00 | 0.00 | 0.00 | 56 | 1015.1 |
| 20260503184542 | 65 | 0 | 0.9 | 5.2 | 0.00 | 0.00 | 0.00 | 55 | 1015.1 |
| 20260503184028 | 65 | 110 | 0.9 | 4.3 | 0.00 | 0.00 | 0.00 | 56 | 1015.2 |
| 20260503183526 | 64 | 205 | 0.9 | 3.5 | 0.00 | 0.00 | 0.00 | 59 | 1015.2 |
| 20260503183105 | 64 | 281 | 0.9 | 3.5 | 0.00 | 0.00 | 0.00 | 59 | 1015.2 |
| 20260503182528 | 64 | 0 | 0.9 | 3.5 | 0.00 | 0.00 | 0.00 | 59 | 1015.2 |
| 20260503182028 | 63 | 117 | 0.9 | 3.5 | 0.00 | 0.00 | 0.00 | 59 | 1015.2 |
| 20260503181607 | 63 | 136 | 0.9 | 3.5 | 0.00 | 0.00 | 0.00 | 62 | 1015.2 |
| 20260503181028 | 62 | 77 | 1.7 | 3.5 | 0.00 | 0.00 | 0.00 | 63 | 1015.3 |
| 20260503180528 | 61 | 184 | 0.9 | 4.3 | 0.00 | 0.00 | 0.00 | 64 | 1015.3 |
| 20260503180043 | 61 | 0 | 0.9 | 4.3 | 0.00 | 0.00 | 0.00 | 64 | 1015.3 |
| 20260503175527 | 60 | 144 | 0.9 | 3.5 | 0.00 | 0.00 | 0.00 | 65 | 1015.2 |
| 20260503175028 | 60 | 124 | 0.0 | 4.3 | 0.00 | 0.00 | 0.00 | 68 | 1015.3 |
| 20260503174543 | 59 | 135 | 1.7 | 4.3 | 0.00 | 0.00 | 0.00 | 68 | 1015.3 |
| 20260503174028 | 59 | 117 | 0.0 | 3.5 | 0.00 | 0.00 | 0.00 | 69 | 1015.4 |
| 20260503173527 | 59 | 146 | 0.9 | 4.3 | 0.00 | 0.00 | 0.00 | 69 | 1015.3 |
| 20260503173036 | 59 | 236 | 0.9 | 4.3 | 0.00 | 0.00 | 0.00 | 69 | 1015.3 |
| 20260503172531 | 59 | 245 | 0.9 | 4.3 | 0.00 | 0.00 | 0.00 | 69 | 1015.3 |
| 20260503172031 | 59 | 121 | 0.9 | 5.2 | 0.00 | 0.00 | 0.00 | 70 | 1015.2 |
| 20260503171537 | 59 | 267 | 1.7 | 5.2 | 0.00 | 0.00 | 0.00 | 71 | 1015.2 |
| 20260503171028 | 58 | 153 | 0.0 | 3.5 | 0.00 | 0.00 | 0.00 | 73 | 1015.2 |
| 20260503170529 | 58 | 106 | 0.9 | 6.1 | 0.00 | 0.00 | 0.00 | 74 | 1015.2 |
| 20260503150527 | 55 | 0 | 0.0 | 2.6 | 0.00 | 0.00 | 0.00 | 81 | 1014.3 |
| 20260503131033 | 47 | 0 | 0.0 | 0.0 | 0.00 | 0.00 | 0.00 | 93 | 1013.4 |
| 20260503130527 | 47 | 0 | 0.0 | 0.0 | 0.00 | 0.00 | 0.00 | 93 | 1013.3 |
| 20260503110527 | 48 | 0 | 0.0 | 0.0 | 0.00 | 0.00 | 0.00 | 89 | 1013.0 |
| 20260503081543 | 54 | 0 | 0.0 | 1.7 | 0.00 | 0.00 | 0.00 | 82 | 1013.5 |
| 20260503081028 | 54 | 0 | 0.0 | 1.7 | 0.00 | 0.00 | 0.00 | 83 | 1013.6 |
| 20260503080528 | 54 | 0 | 0.0 | 2.6 | 0.00 | 0.00 | 0.00 | 83 | 1013.6 |
| 20260503072527 | 54 | 0 | 0.0 | 0.9 | 0.00 | 0.00 | 0.00 | 84 | 1013.3 |
| 20260503072028 | 54 | 0 | 0.0 | 0.9 | 0.00 | 0.00 | 0.00 | 84 | 1013.3 |
| 20260503071538 | 54 | 0 | 0.0 | 1.7 | 0.00 | 0.00 | 0.00 | 84 | 1013.2 |
| 20260503071027 | 54 | 0 | 0.0 | 1.7 | 0.00 | 0.00 | 0.00 | 84 | 1013.2 |
| 20260503070528 | 54 | 255 | 0.0 | 2.6 | 0.00 | 0.00 | 0.00 | 84 | 1013.2 |
| 20260503055027 | 53 | 0 | 0.0 | 0.0 | 0.00 | 0.00 | 0.00 | 87 | 1012.9 |
| 20260503054541 | 53 | 0 | 0.0 | 1.7 | 0.00 | 0.00 | 0.00 | 87 | 1012.8 |
| 20260503054029 | 53 | 0 | 0.0 | 1.7 | 0.00 | 0.00 | 0.00 | 88 | 1012.8 |
| 20260503053528 | 53 | 0 | 0.0 | 1.7 | 0.00 | 0.00 | 0.00 | 88 | 1012.8 |
| 20260503053043 | 53 | 0 | 0.0 | 0.0 | 0.00 | 0.00 | 0.00 | 89 | 1012.8 |
| 20260503052529 | 53 | 0 | 0.0 | 0.0 | 0.00 | 0.00 | 0.00 | 89 | 1012.7 |
| 20260503052029 | 52 | 0 | 0.0 | 0.0 | 0.00 | 0.00 | 0.00 | 89 | 1012.8 |
| 20260503051544 | 52 | 0 | 0.0 | 0.0 | 0.00 | 0.00 | 0.00 | 89 | 1012.7 |
| 20260503051027 | 52 | 0 | 0.0 | 0.0 | 0.00 | 0.00 | 0.00 | 89 | 1012.5 |
| 20260503050527 | 52 | 0 | 0.0 | 0.0 | 0.00 | 0.00 | 0.00 | 89 | 1012.6 |
| 20260503050045 | 52 | 0 | 0.0 | 0.0 | 0.00 | 0.00 | 0.00 | 90 | 1012.7 |
| 20260503045528 | 52 | 0 | 0.0 | 0.0 | 0.00 | 0.00 | 0.00 | 90 | 1012.8 |
| 20260503045031 | 51 | 0 | 0.0 | 0.0 | 0.00 | 0.00 | 0.00 | 90 | 1012.5 |
| 20260503044541 | 51 | 0 | 0.0 | 0.0 | 0.00 | 0.00 | 0.00 | 89 | 1012.4 |
| 20260503044028 | 52 | 0 | 0.0 | 0.9 | 0.00 | 0.00 | 0.00 | 89 | 1012.3 |
| 20260503043528 | 52 | 0 | 0.0 | 0.9 | 0.00 | 0.00 | 0.00 | 89 | 1012.2 |
| 20260503043037 | 52 | 0 | 0.0 | 1.7 | 0.00 | 0.00 | 0.00 | 89 | 1012.0 |
| 20260503042528 | 52 | 0 | 0.0 | 1.7 | 0.00 | 0.00 | 0.00 | 89 | 1011.9 |
| 20260503042028 | 52 | 149 | 0.0 | 3.5 | 0.00 | 0.00 | 0.00 | 88 | 1012.1 |
| 20260503041543 | 52 | 0 | 0.0 | 3.5 | 0.00 | 0.00 | 0.00 | 88 | 1012.1 |
| 20260503041031 | 52 | 0 | 0.0 | 1.7 | 0.00 | 0.00 | 0.00 | 88 | 1012.1 |
| 20260503040528 | 53 | 0 | 0.0 | 1.7 | 0.00 | 0.00 | 0.00 | 88 | 1011.9 |
| 20260503040044 | 53 | 0 | 0.0 | 1.7 | 0.00 | 0.00 | 0.00 | 88 | 1012.0 |
| 20260503035527 | 53 | 238 | 0.0 | 2.6 | 0.00 | 0.00 | 0.00 | 87 | 1012.0 |
| 20260503035027 | 53 | 0 | 0.0 | 2.6 | 0.00 | 0.00 | 0.00 | 87 | 1011.8 |
| 20260503034538 | 53 | 0 | 0.9 | 2.6 | 0.00 | 0.00 | 0.00 | 87 | 1011.9 |
| 20260503034026 | 53 | 143 | 0.0 | 2.6 | 0.00 | 0.00 | 0.00 | 87 | 1011.9 |
| 20260503033527 | 53 | 0 | 0.0 | 4.3 | 0.00 | 0.00 | 0.00 | 86 | 1011.9 |
| 20260503033047 | 53 | 108 | 0.0 | 4.3 | 0.00 | 0.00 | 0.00 | 86 | 1011.9 |
| 20260503032528 | 53 | 130 | 0.9 | 4.3 | 0.00 | 0.00 | 0.00 | 86 | 1011.9 |
| 20260503032028 | 53 | 0 | 0.0 | 1.7 | 0.00 | 0.00 | 0.00 | 85 | 1011.8 |
| 20260503031542 | 54 | 0 | 0.0 | 1.7 | 0.00 | 0.00 | 0.00 | 85 | 1011.9 |
| 20260503031029 | 54 | 141 | 0.0 | 1.7 | 0.00 | 0.00 | 0.00 | 85 | 1011.9 |
| 20260503030527 | 54 | 0 | 0.0 | 1.7 | 0.00 | 0.00 | 0.00 | 84 | 1011.9 |
| 20260503030043 | 54 | 0 | 0.0 | 1.7 | 0.00 | 0.00 | 0.00 | 84 | 1011.9 |
| 20260503025527 | 55 | 0 | 0.0 | 2.6 | 0.00 | 0.00 | 0.00 | 83 | 1011.9 |
| 20260503025029 | 55 | 0 | 0.0 | 2.6 | 0.00 | 0.00 | 0.00 | 83 | 1011.9 |
| 20260503024542 | 55 | 0 | 0.0 | 2.6 | 0.00 | 0.00 | 0.00 | 82 | 1011.8 |
| 20260503024027 | 55 | 0 | 0.0 | 2.6 | 0.00 | 0.00 | 0.00 | 81 | 1011.7 |
| 20260503023527 | 56 | 141 | 0.0 | 2.6 | 0.00 | 0.00 | 0.00 | 81 | 1011.8 |
| 20260503023044 | 56 | 141 | 0.0 | 4.3 | 0.00 | 0.00 | 0.00 | 80 | 1011.8 |
| 20260503022527 | 56 | 143 | 0.0 | 7.0 | 0.00 | 0.00 | 0.00 | 80 | 1011.7 |
| 20260503022036 | 57 | 0 | 1.7 | 7.0 | 0.00 | 0.00 | 0.00 | 79 | 1011.7 |
| 20260503021543 | 57 | 153 | 0.0 | 6.1 | 0.00 | 0.00 | 0.00 | 78 | 1011.6 |
| 20260503021030 | 57 | 143 | 1.7 | 7.0 | 0.00 | 0.00 | 0.00 | 78 | 1011.5 |
| 20260503020528 | 58 | 128 | 0.9 | 7.0 | 0.00 | 0.00 | 0.00 | 78 | 1011.5 |
| 20260503020044 | 58 | 120 | 2.6 | 7.8 | 0.00 | 0.00 | 0.00 | 77 | 1011.6 |
| 20260503015528 | 58 | 94 | 0.9 | 7.8 | 0.00 | 0.00 | 0.00 | 76 | 1011.5 |
| 20260503015027 | 59 | 233 | 0.9 | 6.1 | 0.00 | 0.00 | 0.00 | 75 | 1011.6 |
| 20260503014543 | 59 | 0 | 0.9 | 6.1 | 0.00 | 0.00 | 0.00 | 75 | 1011.5 |
| 20260503014028 | 60 | 255 | 0.9 | 5.2 | 0.00 | 0.00 | 0.00 | 74 | 1011.5 |
| 20260503013529 | 60 | 195 | 1.7 | 5.2 | 0.00 | 0.00 | 0.00 | 73 | 1011.5 |
| 20260503013051 | 61 | 326 | 0.9 | 5.2 | 0.00 | 0.00 | 0.00 | 72 | 1011.5 |
| 20260503012528 | 61 | 143 | 1.7 | 5.2 | 0.00 | 0.00 | 0.00 | 70 | 1011.4 |
| 20260503012027 | 62 | 0 | 0.9 | 5.2 | 0.00 | 0.00 | 0.00 | 69 | 1011.4 |
| 20260503011540 | 63 | 149 | 0.9 | 5.2 | 0.00 | 0.00 | 0.00 | 67 | 1011.5 |
| 20260503011036 | 64 | 167 | 0.9 | 5.2 | 0.00 | 0.00 | 0.00 | 66 | 1011.4 |
| 20260503010529 | 64 | 135 | 0.9 | 4.3 | 0.00 | 0.00 | 0.00 | 65 | 1011.3 |
| 20260503005528 | 65 | 147 | 0.9 | 5.2 | 0.00 | 0.00 | 0.00 | 64 | 1011.5 |
| 20260503005030 | 65 | 113 | 0.9 | 5.2 | 0.00 | 0.00 | 0.00 | 63 | 1011.5 |
| 20260503004543 | 66 | 246 | 0.9 | 6.1 | 0.00 | 0.00 | 0.00 | 63 | 1011.4 |
| 20260503004027 | 66 | 129 | 1.7 | 7.0 | 0.00 | 0.00 | 0.00 | 62 | 1011.4 |
| 20260503003527 | 67 | 131 | 1.7 | 7.0 | 0.00 | 0.00 | 0.00 | 62 | 1011.4 |
| 20260503003043 | 67 | 129 | 1.7 | 7.0 | 0.00 | 0.00 | 0.00 | 61 | 1011.4 |
| 20260503002527 | 67 | 243 | 1.7 | 7.0 | 0.00 | 0.00 | 0.00 | 61 | 1011.3 |
| 20260503002027 | 68 | 233 | 1.7 | 5.2 | 0.00 | 0.00 | 0.00 | 60 | 1011.3 |
| 20260503001601 | 68 | 245 | 0.9 | 5.2 | 0.00 | 0.00 | 0.00 | 60 | 1011.3 |
| 20260503001030 | 68 | 124 | 1.7 | 5.2 | 0.00 | 0.00 | 0.00 | 59 | 1011.5 |
| 20260503000528 | 68 | 134 | 1.7 | 7.0 | 0.00 | 0.00 | 0.00 | 60 | 1011.4 |
| 20260503000106 | 68 | 246 | 2.6 | 7.0 | 0.00 | 0.00 | 0.00 | 59 | 1011.4 |
| 20260502235527 | 69 | 217 | 0.9 | 6.1 | 0.00 | 0.00 | 0.00 | 59 | 1011.5 |
| 20260502235030 | 69 | 145 | 0.9 | 4.3 | 0.00 | 0.00 | 0.00 | 58 | 1011.4 |
| 20260502234546 | 69 | 155 | 1.7 | 7.0 | 0.00 | 0.00 | 0.00 | 59 | 1011.4 |
| 20260502234028 | 69 | 245 | 1.7 | 7.0 | 0.00 | 0.00 | 0.00 | 57 | 1011.4 |
| 20260502233528 | 69 | 240 | 1.7 | 5.2 | 0.00 | 0.00 | 0.00 | 58 | 1011.3 |
| 20260502233044 | 70 | 323 | 1.7 | 8.7 | 0.00 | 0.00 | 0.00 | 58 | 1011.4 |
| 20260502232529 | 70 | 129 | 1.7 | 8.7 | 0.00 | 0.00 | 0.00 | 58 | 1011.4 |
| 20260502232027 | 70 | 150 | 0.9 | 4.3 | 0.00 | 0.00 | 0.00 | 57 | 1011.4 |
| 20260502231544 | 70 | 152 | 1.7 | 5.2 | 0.00 | 0.00 | 0.00 | 57 | 1011.4 |
| 20260502231029 | 70 | 125 | 1.7 | 6.1 | 0.00 | 0.00 | 0.00 | 57 | 1011.4 |
| 20260502230529 | 70 | 101 | 1.7 | 7.0 | 0.00 | 0.00 | 0.00 | 57 | 1011.5 |
| 20260502230041 | 70 | 262 | 1.7 | 7.0 | 0.00 | 0.00 | 0.00 | 57 | 1011.5 |
| 20260502225530 | 70 | 125 | 0.9 | 7.0 | 0.00 | 0.00 | 0.00 | 58 | 1011.6 |
| 20260502225028 | 70 | 158 | 2.6 | 7.0 | 0.00 | 0.00 | 0.00 | 56 | 1011.7 |
| 20260502224543 | 71 | 78 | 1.7 | 7.0 | 0.00 | 0.00 | 0.00 | 57 | 1011.8 |
| 20260502224028 | 71 | 92 | 2.6 | 6.1 | 0.00 | 0.00 | 0.00 | 56 | 1011.9 |
| 20260502223531 | 70 | 122 | 1.7 | 6.1 | 0.00 | 0.00 | 0.00 | 57 | 1012.0 |
| 20260502223037 | 70 | 195 | 2.6 | 6.1 | 0.00 | 0.00 | 0.00 | 57 | 1012.1 |
| 20260502222531 | 70 | 227 | 1.7 | 4.3 | 0.00 | 0.00 | 0.00 | 56 | 1012.2 |
| 20260502222028 | 70 | 145 | 1.7 | 4.3 | 0.00 | 0.00 | 0.00 | 57 | 1012.3 |
| 20260502221546 | 70 | 121 | 0.9 | 7.8 | 0.00 | 0.00 | 0.00 | 58 | 1012.3 |
| 20260502221028 | 70 | 243 | 1.7 | 7.8 | 0.00 | 0.00 | 0.00 | 58 | 1012.4 |
| 20260502220526 | 69 | 277 | 1.7 | 7.8 | 0.00 | 0.00 | 0.00 | 60 | 1012.5 |
| 20260502220044 | 69 | 72 | 2.6 | 8.7 | 0.00 | 0.00 | 0.00 | 59 | 1012.7 |
| 20260502215529 | 69 | 218 | 2.6 | 9.6 | 0.00 | 0.00 | 0.00 | 59 | 1012.7 |
| 20260502215030 | 69 | 122 | 2.6 | 10.4 | 0.00 | 0.00 | 0.00 | 59 | 1012.8 |
| 20260502214551 | 69 | 72 | 1.7 | 10.4 | 0.00 | 0.00 | 0.00 | 60 | 1012.9 |
| 20260502214030 | 69 | 75 | 3.5 | 8.7 | 0.00 | 0.00 | 0.00 | 59 | 1013.0 |
| 20260502213528 | 70 | 246 | 2.6 | 6.1 | 0.00 | 0.00 | 0.00 | 58 | 1013.1 |
| 20260502213043 | 70 | 240 | 1.7 | 7.0 | 0.00 | 0.00 | 0.00 | 58 | 1013.1 |
| 20260502212528 | 70 | 140 | 1.7 | 7.0 | 0.00 | 0.00 | 0.00 | 60 | 1013.2 |